Starlink 32191

operational
NORAD ID: 60314 Int'l Des: 2024-133 Owner: SPXS Country: US Constellation: starlink
LEOCIRCULAR

关于 Starlink 32191

正在加载描述...

实时位置

正在加载3D地球...

即将过境

高度历史

Altitude vs Time

uPlot chart will show altitude changes over time

两行轨道根数

1 60314U 24133P 26038.32640176 .00002339 00000-0 91063-4 0 9995
2 60314 53.1581 77.9459 0001469 92.0321 268.0848 15.30200144 86995
Epoch: Feb 7, 2026 • Age: 8 hours

当前状态

高度 479.5 km
速度 7.63 km/s
星下点 47.42°N, 178.12°W
发射日期 Jul 28, 2024
运行时间 1.5 years
类型 internet

技术详情

分类 Payload
质量 730.00 kg
干质量 700.00 kg
总质量 730.00 kg
长度 0.30 m
直径 4.10 m
跨度 29.00 m
形状 Box + pan
制造商 SPXS
平台类型 Starlink V2M
阶段状态 In Orbit
所有者/国家 SPXS/US

大型星座

Loading constellations...